Meteo Giornale » Osservazioni meteo Italia » S Maria Di Leuca

ore: 00:55 - Osservazioni Meteo S Maria Di Leuca
Lat. 39° 49' N Lon. 18° 21' E Alt. 104 metri s.l.m.

foschia Europe/Rome

15 °C

Foschia

Temp. 24 Ore

14 °C

17 °C

Sud

11.1 Km/h

Dew point 13 °C

Umidità 87 %

Visibilità  3 Km

Il sole sorge alle ore 05:49

Il sole tramonta alle ore 19:38

Data e Ora Cielo e Fenomeni T °C DP °C Um. % Pres. hPa Vis. km Vento km/h
Oggi h: 00:55 foschia Foschia 15 13 87 1017 3 S 11.1
Ieri h: 23:55 nuvoloso Nuvoloso 15 13 87 1017 6 S 13
Ieri h: 22:55 poco_nuvoloso Poco Nuvoloso 15 14 93 1017 8 S 13
Ieri h: 21:55 poco_nuvoloso Poco Nuvoloso 15 14 93 1017 8 S 13
Ieri h: 20:55 nuvoloso Nuvoloso 15 14 93 1017 8 S 13
Ieri h: 19:55 poco_nuvoloso Poco Nuvoloso 15 14 93 1016 10 S 16.7
Ieri h: 18:55 sereno Sereno 15 14 93 1016 10 SO 14.8
Ieri h: 17:55 sereno Sereno 16 15 93 1016 10 S/SE 16.7
Ieri h: 16:55 poco_nuvoloso Poco Nuvoloso 17 15 88 1016 10 NE 16.7
Ieri h: 15:55 sereno Sereno 17 15 88 1017 10 SO 20.3
Ieri h: 14:55 sereno Sereno 16 15 93 1017 10 S/SE 24
Ieri h: 13:55 poco_nuvoloso Poco Nuvoloso 16 14 87 1017 10 S/SE 24
Ieri h: 12:55 poco_nuvoloso Poco Nuvoloso 17 15 88 1018 10 SO 22.2
Ieri h: 11:55 poco_nuvoloso Poco Nuvoloso 17 15 88 1018 10 E/NE 20.3
Ieri h: 09:55 poco_nuvoloso Poco Nuvoloso 16 15 93 1017 10 N/NO 18.5
Ieri h: 08:55 poco_nuvoloso Poco Nuvoloso 15 13 87 1017 10 SO 18.5
Ieri h: 07:55 poco_nuvoloso Poco Nuvoloso 15 13 87 1017 10 S 14.8
Ieri h: 06:55 poco_nuvoloso Poco Nuvoloso 14 12 87 1017 10 S 13
Ieri h: 05:55 nuvoloso Nuvoloso 14 12 87 1017 10 S 13
Ieri h: 04:55 nuvoloso Nuvoloso 14 11 82 1017 10 S 13
Ieri h: 03:55 molto_nuvoloso Molto Nuvoloso 14 10 76 1017 10 S/SO 18.5
Ieri h: 02:55 molto_nuvoloso Molto Nuvoloso 14 11 82 1017 10 S 16.7
Ieri h: 01:55 nuvoloso Nuvoloso 14 11 82 1018 10 S/SE 14.8